Find Starlink 5267

NORAD ID: 55655 Int'l Des: 2023-021 Owner: SPXS Country: US Constellation: starlink operational
LEOCIRCULAR

リアルタイム位置

3D地球を読み込み中...

Starlink 5267について

説明を読み込み中...

次回通過

Passes for default location (London). Set your location on the main map for personalized predictions.

高度履歴

Loading altitude history...

軌道要素

1 55655U 23021AD 26106.62169757 -.00000847 00000-0 -63198-4 0 9994
2 55655 69.9999 68.9255 0002995 268.7096 91.3720 14.98330074174954
Epoch: Apr 16, 2026 • Age: 17 hours

現在のステータス

高度 594.4 km
速度 7.56 km/s
衛星直下点 -65.58°S, 45.64°E
打ち上げ日 Feb 17, 2023
運用期間 3.1 years
タイプ internet

技術仕様

分類 Payload
質量 305.00 kg
乾燥質量 290.00 kg
総質量 305.00 kg
長さ 0.20 m
直径 2.80 m
スパン 9.00 m
形状 Box + pan
製造者 SPXS
バスタイプ Starlink
フェーズステータス In Orbit
所有者/国 SPXS/US

Most Searched